COSMOS 1275 DEB

Satellite information

Favourite Embed

Satellite Type and Status

DEBRISIN ORBIT

Key statistics

Satellite COSMOS 1275 DEB at a glance.

Uptime

16159

Days in orbit

Revolutions

≈ 14.0

Per day

Orbit

LEO

Low Earth Orbit

Inclination

83.0

Latest

Satellite identification and parameters

Extended collection of information and parameters for COSMOS 1275 DEB.

Object identification

Identified? True

Debris? True

Object name: COSMOS 1275 DEB

International designator: 1981-053GA

Object number (NORAD): 13480

Object ID (CCSDS): 13480

Country: COMMONWEALTH OF INDEPENDENT STATES (CIS)

Current information (Y/N): Y

RCS size: SMALL

Orbital parameters

Period: 102.983 minutes

Inclination: 82.9644 deg

SMA: 7277.849 km

Apoapsis: 948.545 km

Periapsis: 850.882 km

RAAN: 30.6938 deg

Eccentricy: 0.00670956

Argument of periapsis: 160.5919 deg

Mean anomaly: 264.4407 deg

Mean motion: 13.98293165 rev/day

Mean motion (dot): 0.00002812 rev/day2

B* drag term: 0.0019231831 1/REarth

Two-line elements (TLE)

Creation date: Aug. 31, 2025, 2:26 a.m.

Reference frame: TEME

Reference center: EARTH

Epoch: Aug. 30, 2025, 11:04 a.m. UTC

TLE line 0: 0 COSMOS 1275 DEB

TLE line 1: 1 13480U 81053GA 25242.46118557 .00002812 00000-0 19232-2 0 9997

TLE line 2: 2 13480 82.9644 30.6938 0067096 160.5919 264.4407 13.98293165181643

Live tracking on map

Real-time ground track for satellite COSMOS 1275 DEB.

In-orbit conjunctions

A list of the most updated potential collisions computed for object COSMOS 1275 DEB.

Target Orbit TCA Probability of collision Miss distance Type
CZ-6A DEB LEO 2025-01-06 20:32:59 0.0001115554 470.0 (m) DEBRIS
FENGYUN 1C DEB SSO 2024-12-12 16:46:40 0.0001868478 75.0 (m) DEBRIS

Associated space launch

Navigation satellite providing location information for the Tsiklon-B navigation system

COSMOS 1275 DEB was lifted into orbit during the mission ‘Kosmos-3M | Parus 27’, on board a Kosmos-3M space rocket.

The launch took place on June 4, 1981, 3:41 p.m. from 132/2.

For more information about the launch, click the button.

Launch to space Kosmos-3M | Parus 27
Kosmos-3M | Parus 27

Agency: N/A

Status: Launch Successful

Launch date: June 4, 1981, 3:41 p.m. UTC

Rocket: Kosmos-3M

Launch pad: 132/2

Location: Plesetsk Cosmodrome, Russian Federation

...

Latest news about this satellite

There are no fresh news available about this satellite. Check back as we update our databases every day.


Newsletter sign-up

Weekly statistics, charts and insights to help you stay on top of the space industry.